Regional Weather Roundup
Issued by NWS

Home | Current Version | Previous Version | Text Only | Print | Product List | Glossary On
Versions: 1 2 3 4 5 6 7 8 9 10 11 12 13 14 15 16 17 18 19 20 21 22 23 24 25 26 27 28 29 30 31 32 33 34 35 36 37 38 39 40 41 42 43 44 45 46 47 48 49 50
000
ASUS44 KMEG 251410
RWRTN
TENNESSEE HOURLY STATE WEATHER ROUNDUP
NATIONAL WEATHER SERVICE MEMPHIS TN
800 AM CST SUN FEB 25 2018

TNZ002-004-019-021-049-052-054-088>092-251500-
WEST TENNESSEE

CITY           SKY/WX    TMP DP  RH WIND       PRES   REMARKS
MEMPHIS INTL   CLOUDY    47  40  76 CALM      30.13R
NWS MEMPHIS      N/A     46 N/A N/A MISG        N/A
JACKSON        FAIR      48  40  73 NW7       30.11R
DYERSBURG      FAIR      45  36  70 NW5       30.13R
SOMERVILLE     SUNNY     46  39  76 NW6       30.10S
COVINGTON      SUNNY     46  37  71 N7        30.13R
UNION CITY     SUNNY     45  37  76 CALM      30.11R
BOLIVAR        SUNNY     48  41  76 NW5       30.09S
PARIS          SUNNY     45  37  76 VRB3      30.10R
LEXINGTON      SUNNY     48  43  81 NW5       30.10S
SELMER         SUNNY     48  45  87 N5        30.09R
SAVANNAH       SUNNY     50  45  81 CALM      30.10R
$$

TNZ008-025-027-028-033-062-065-066-251500-
NORTH MIDDLE TENNESSEE

CITY           SKY/WX    TMP DP  RH WIND       PRES   REMARKS
NASHVILLE      CLOUDY    52  43  71 NW9       30.07R
PORTLAND       MOSUNNY   48  45  87 NW6G13    30.06R
CLARKSVILLE    FAIR      47  36  65 NW9       30.09R
SMYRNA         FAIR      52  47  83 NW6       30.08R
COOKEVILLE     PTSUNNY   54  52  94 SW5       30.07R
GALLATIN       SUNNY     52  45  76 NW7G14    30.10R
CROSSVILLE     CLOUDY    50  47  89 W9        30.10R
$$

TNZ061-075-076-078-094-096-097-251500-
SOUTH MIDDLE TENNESSEE

CITY           SKY/WX    TMP DP  RH WIND       PRES   REMARKS
TULLAHOMA      PTSUNNY   54  52  94 SW7       30.08R
WINCHESTER     SUNNY     54  52  94 W5        30.10R
MCMINNVILLE    PTSUNNY   54  52  94 SW5       30.06S
COLUMBIA       MOSUNNY   52  52 100 CALM      30.06S
SHELBYVILLE    MOSUNNY   54  52  94 SW6       30.09R
$$

TNZ017-018-042-046-047-251500-
NORTHEAST TENNESSEE

CITY           SKY/WX    TMP DP  RH WIND       PRES   REMARKS
TRI CITIES     LGT RAIN  58  56  93 SW13      30.08R
ELIZABETHTON   LGT RAIN  59  57  94 SW6       30.10R
$$

TNZ012-013-036-069-073-074-251500-
CENTRAL EAST TENNESSEE

CITY           SKY/WX    TMP DP  RH WIND       PRES   REMARKS
KNOXVILLE      CLOUDY    56  55  97 W10       30.06S FOG
OAK RIDGE      PTSUNNY   56  56 100 CALM      30.08R
DOWNTOWN KNOXV MOSUNNY   57  55  94 W6        30.07R
GATLINBURG     MOSUNNY   57  54  88 S13G18    30.03F
JACKSBORO      CLOUDY    54  52  94 CALM      30.12R
$$

TNZ083-085-099-251500-
SOUTHEAST TENNESSEE

CITY           SKY/WX    TMP DP  RH WIND       PRES   REMARKS
CHATTANOOGA    LGT RAIN  56  54  93 SE3       30.07S FOG
$$

SKY/WX REPORTED AS FAIR MEANS FEW OR NO CLOUDS BELOW
12 THOUSAND FEET.





USA.gov is the U.S. government's official web portal to all federal, state and local government web resources and services.